756  
ASUS43 KLMK 200710  
RWRKY  
KENTUCKY REGIONAL WEATHER ROUNDUP  
NATIONAL WEATHER SERVICE LOUISVILLE KY  
300 AM EDT SAT SEP 20 2014  
 
NOTE "FAIR" INDICATES FEW OR NO CLOUDS BELOW 12,000 FEET  
WITH NO SIGNIFICANT WEATHER AND/OR S TO VISIBILITY
.  
 
KYZ001>023-026-027-061>063-070>075-200800-  
WESTERN AND SOUTH CENTRAL KENTUCKY  
 
CITY SKY/WX TMP DP RH WIND PRES REMARKS
 
PADUCAH CLEAR 63 59 87 CALM 30.02F  
HENDERSON CLEAR 55 52 88 CALM 30.04S  
OWENSBORO PTCLDY 62 59 90 SE3 30.04F  
HOPKINSVILLE CLEAR 62 62 100 NE2 30.05S  
BOWLING GREEN MOCLDY 64 61 90 CALM 30.06S  
GLASGOW PTCLDY 67 62 81 S5 30.08S  

 
 
KYZ024-025-028>034-038-045-046-053-200800-  
NORTH CENTRAL KENTUCKY  
 
CITY SKY/WX TMP DP RH WIND PRES REMARKS
 
LOUISVILLE/SDF MOCLDY 64 58 80 SE5 30.05F  
LOUISVILLE/LOU PTCLDY 62 57 83 CALM 30.06F  
FORT KNOX PTCLDY 60 58 92 CALM 30.05F  

 
 
KYZ035>037-039>044-047>052-055>060-089>105-200800-  
NORTHEAST KENTUCKY  
 
CITY SKY/WX TMP DP RH WIND PRES REMARKS
 
LEXINGTON MOCLDY 65 61 87 SE9 30.09F  
COVINGTON PTCLDY 62 55 77 S6 30.07F  
FRANKFORT PTCLDY 57 54 89 CALM 30.07F  

 
 
KYZ054-064>069-076>088-106>120-200800-  
SOUTHEAST KENTUCKY  
 
CITY SKY/WX TMP DP RH WIND PRES REMARKS
 
JACKSON PTCLDY 65 58 78 S5 30.14R  
LONDON CLEAR 65 58 78 CALM 30.14R  
SOMERSET PTCLDY 64 63 94 CALM 30.13S  
MIDDLESBORO CLEAR 61 58 90 W3 30.17S  
MONTICELLO SUNNY 70 61 73 S9 30.12S  

 
 
CLICK HERE TO GO TO PREVIOUS BULLETINS.

The Nexlab KY Page Main Text Page